Wind_Speed
16 20 22 22 20 14 4 16 20 10 20 37 26 26 29 33 30 31 32 32 34 37 36 35 36 38 37 37 38 39 38 39 41 42 43 44 45 48 49 48 46 43 44 43 41 39 39 42 48
20 22 23 24 14 7 19 22 12 16 27 37 34 34 33 36 30 33 33 31 33 36 36 35 36 36 35 38 39 38 38 39 42 45 47 48 49 49 51 50 47 46 44 44 43 41 41 39 46
23 22 24 24 18 3 19 10 14 24 30 35 34 37 36 31 30 32 34 36 37 38 37 34 36 38 37 39 38 37 39 42 44 47 48 49 48 47 48 50 47 46 45 45 44 43 42 39 42
23 24 23 23 8 6 20 28 26 39 40 39 38 33 39 31 30 33 34 35 36 39 42 37 34 36 37 37 37 36 40 43 46 48 49 49 47 46 47 46 48 47 46 44 43 44 43 40 40
31 29 25 24 12 23 20 23 28 30 30 17 31 34 40 39 31 35 35 35 37 39 41 39 38 36 38 37 35 37 41 45 47 47 46 44 46 46 47 46 46 46 47 46 45 45 45 42 40
31 26 24 18 9 31 25 19 23 33 29 16 29 38 42 41 32 35 34 35 38 39 37 39 36 36 36 38 37 40 44 47 48 45 42 44 42 41 42 45 46 46 42 41 46 45 44 42 42
21 26 27 24 21 15 16 29 40 37 36 30 37 40 39 46 33 33 36 38 40 38 37 35 36 33 35 37 37 41 47 47 45 41 42 43 42 41 41 38 42 42 42 39 42 46 43 42 42
21 25 24 27 15 14 25 30 21 32 28 32 34 34 37 42 36 38 40 36 34 32 32 33 32 34 39 39 36 43 46 44 41 42 45 46 45 44 37 35 38 39 38 40 37 43 47 41 42
29 28 28 26 13 21 17 17 25 32 35 32 37 41 37 32 33 36 34 34 34 31 30 27 30 35 37 37 40 44 44 41 41 43 42 42 41 39 36 33 32 34 36 37 38 39 43 43 43
31 35 30 23 17 26 28 33 32 29 27 25 27 43 40 36 31 27 28 29 32 30 28 29 32 35 35 37 42 43 40 40 39 39 37 36 36 34 32 29 28 28 31 36 38 34 38 42 43
34 36 31 25 25 30 29 29 27 26 31 33 37 39 47 31 23 25 30 31 30 30 30 32 33 34 35 39 42 41 39 36 36 35 34 34 32 32 25 25 28 29 29 32 37 36 33 42 42
37 33 30 32 25 29 25 24 27 32 29 29 39 34 40 43 30 26 25 29 27 25 27 30 33 34 34 39 39 38 36 34 32 34 35 33 33 29 24 26 25 28 28 31 33 36 34 38 42
40 31 30 34 30 24 23 25 30 29 30 32 39 36 31 25 22 26 29 28 30 31 30 31 35 36 36 39 37 36 34 33 30 33 32 33 28 22 24 21 17 16 19 26 33 34 32 36 40
36 35 32 38 25 21 24 28 33 23 32 36 31 29 25 27 26 26 28 30 31 32 31 33 35 35 37 36 34 32 31 28 27 29 33 31 28 18 17 17 13 14 13 22 30 32 31 34 38
37 36 35 32 23 24 24 31 27 24 32 32 31 26 24 29 30 30 28 29 32 34 32 35 34 33 35 33 33 27 26 25 26 29 28 29 23 13 14 14 10 13 12 20 30 32 30 32 39
35 35 36 23 21 23 29 34 33 22 27 32 36 28 32 31 29 31 31 30 32 36 32 34 33 34 34 31 31 21 20 27 27 26 28 25 17 13 13 12 8 10 13 17 29 36 32 34 39
30 33 29 21 19 19 30 37 33 27 22 30 32 32 36 34 27 29 29 31 32 35 32 32 30 31 30 29 24 22 25 23 29 26 28 24 14 12 11 11 7 7 11 14 31 36 33 33 39
22 24 19 17 11 21 33 30 33 33 25 30 31 38 37 30 29 27 28 31 33 33 31 30 28 30 26 24 24 24 23 20 26 24 25 21 13 11 9 10 3 3 8 11 27 36 32 33 38
22 17 19 15 20 17 19 20 34 33 31 28 28 33 31 33 29 25 26 29 32 31 29 27 27 28 23 25 24 25 21 20 21 24 25 22 14 10 7 5 3 3 9 15 25 34 30 33 39
25 24 23 23 22 29 29 29 36 29 20 19 22 22 24 29 25 24 26 28 29 27 27 24 26 25 21 24 23 21 20 21 21 22 24 20 16 9 6 3 0 5 7 16 22 32 30 35 37
29 28 26 22 24 26 26 31 25 18 23 23 26 26 21 23 22 23 23 24 23 25 25 22 24 23 21 22 22 20 23 22 24 19 21 19 17 9 3 2 3 7 11 15 21 29 30 33 37
31 24 16 22 26 28 21 27 23 22 17 20 26 28 19 19 19 21 19 22 22 24 23 21 22 21 19 19 21 18 17 21 21 21 20 18 12 12 2 1 4 8 11 17 20 27 30 35 39
27 18 21 26 28 27 29 30 16 11 11 20 26 34 27 18 22 21 20 24 22 21 21 19 19 19 18 17 17 16 18 21 19 16 16 17 15 13 5 4 6 11 14 16 22 26 36 31 36
22 23 25 31 26 31 23 21 13 4 16 21 27 35 26 19 22 18 20 21 17 18 17 18 18 16 17 14 14 14 19 21 17 14 17 20 15 10 8 3 9 14 15 19 21 23 20 22 24
24 29 33 29 28 28 13 16 11 10 24 33 30 17 26 20 17 17 21 18 14 16 15 16 16 14 15 11 11 14 16 19 14 13 17 16 14 9 10 10 13 15 16 18 22 24 24 22 21
32 35 31 30 23 9 15 24 16 25 22 24 19 16 20 18 14 18 20 15 14 13 14 15 15 14 14 9 9 12 14 15 14 16 13 14 12 12 12 10 9 16 17 18 21 22 24 25 26
35 34 25 27 20 22 17 14 16 26 24 30 23 16 16 16 15 18 18 12 15 10 14 15 14 12 11 7 7 10 14 13 13 14 15 12 11 10 10 11 13 19 18 18 17 15 25 26 28
35 27 31 27 25 25 19 16 19 27 27 25 29 23 17 15 14 17 12 10 11 10 13 14 13 10 10 7 9 10 12 11 11 13 13 15 10 12 14 10 18 17 18 17 16 15 18 22 24
36 37 36 26 23 18 9 9 22 31 22 28 34 19 13 14 14 13 6 10 6 9 12 13 12 11 11 4 8 9 11 12 12 17 15 13 10 13 14 11 11 20 18 15 14 16 18 21 24
28 33 35 30 24 23 20 18 22 23 27 29 31 16 16 13 11 6 5 8 5 8 11 13 12 10 10 8 6 10 10 12 13 18 20 11 10 15 19 16 20 24 20 17 18 17 18 21 24
Wind_Direction
326 320 322 320 327 325 320 254 257 293 265 269 282 279 282 280 285 293 294 303 303 305 307 306 304 303 303 302 303 303 305 307 306 305 304 304 303 300 297 293 289 283 276 272 267 263 256 244 245
322 319 321 323 328 31 282 299 260 262 256 272 289 282 284 283 288 296 298 300 301 302 305 307 301 300 300 302 303 305 305 307 308 308 307 304 300 296 292 288 282 276 270 264 262 261 255 246 242
319 318 320 325 330 342 286 301 255 260 280 281 285 286 276 280 294 299 306 307 308 308 306 307 303 304 303 304 304 304 310 311 310 308 304 298 294 290 287 285 280 272 265 259 256 255 252 249 238
316 310 313 320 5 302 264 259 274 274 285 294 285 285 284 283 297 302 305 308 308 309 308 308 303 300 302 304 304 310 312 310 309 304 300 297 295 293 290 285 278 272 266 257 251 249 248 245 237
307 306 313 333 319 276 277 276 267 273 294 290 286 294 286 295 300 308 310 310 311 309 308 308 304 302 304 306 308 309 308 309 305 302 300 300 298 293 289 284 278 273 264 258 252 246 243 239 235
299 299 308 334 302 303 309 263 270 299 294 294 289 284 296 300 304 308 309 312 310 306 306 304 300 302 309 311 308 307 309 308 304 304 302 300 294 294 292 282 274 270 266 255 249 245 238 233 230
294 299 309 311 301 252 273 298 291 285 287 281 283 295 297 294 306 306 302 303 310 307 306 300 301 307 310 309 307 307 308 308 308 304 301 295 289 294 294 286 272 266 261 256 245 240 232 227 225
283 295 305 307 321 286 288 282 295 294 284 304 292 286 290 300 308 306 308 309 308 304 299 298 304 310 312 311 309 310 311 311 309 303 300 296 293 293 290 280 270 260 258 250 246 237 231 226 222
283 294 306 308 284 280 284 277 272 282 286 296 294 297 288 299 303 311 310 316 317 317 312 308 306 312 315 315 315 314 315 312 308 305 301 299 296 295 296 284 268 255 252 247 243 236 228 225 218
281 290 303 300 270 259 252 263 277 289 290 304 305 296 297 306 305 309 319 327 328 327 320 313 320 316 316 317 318 317 316 311 309 308 310 310 307 302 302 288 272 261 250 241 237 233 223 218 215
285 291 300 294 281 270 281 291 295 286 279 270 277 282 298 311 316 329 333 331 325 323 320 315 316 319 319 320 320 319 317 313 312 320 317 316 316 309 300 288 282 271 255 242 231 227 220 215 213
279 292 297 300 293 283 290 297 298 293 290 286 281 292 295 302 291 312 312 320 322 317 317 319 321 322 321 322 322 319 317 317 315 320 323 323 318 306 298 292 278 264 249 233 224 222 218 214 211
272 285 284 284 290 284 296 298 295 296 295 282 296 301 310 315 323 322 321 320 325 326 323 324 326 323 324 325 320 321 324 319 318 323 325 323 320 300 303 296 279 255 231 220 212 210 211 210 209
270 274 274 281 281 295 288 290 292 303 295 297 308 299 316 322 319 320 322 319 326 331 325 325 325 323 328 325 322 324 327 323 331 335 334 327 322 290 305 300 278 240 226 210 207 202 201 204 207
263 263 269 274 290 288 293 281 304 301 284 293 308 313 313 312 314 312 322 323 330 331 327 323 323 325 328 322 323 329 337 334 331 333 341 333 328 296 311 306 286 229 219 210 201 196 197 203 202
253 260 266 274 282 298 291 290 296 297 276 288 305 305 314 312 306 311 323 322 322 328 325 322 325 332 327 324 326 326 337 342 340 341 347 337 330 305 314 310 283 237 212 212 201 194 201 203 198
248 255 263 280 284 308 262 284 296 307 274 292 297 311 310 305 311 312 316 316 321 326 323 324 329 332 325 332 330 327 327 321 339 340 347 348 336 310 314 316 294 249 216 213 196 192 198 200 196
267 267 276 296 289 265 270 276 302 301 296 285 298 302 304 309 312 313 310 311 324 321 322 325 329 331 326 327 330 331 324 315 339 341 347 352 340 325 327 332 307 243 198 185 182 187 194 196 193
255 254 248 268 283 267 270 290 286 286 291 294 285 282 289 299 309 311 307 315 323 320 321 324 331 329 329 330 329 332 328 319 332 341 346 345 340 332 328 332 330 194 196 177 177 184 189 189 189
243 249 240 239 248 254 260 270 272 289 302 302 300 294 290 295 306 308 310 316 319 318 320 327 331 328 325 330 332 341 344 343 331 341 340 352 352 343 340 350 59 162 172 178 180 187 186 188 188
249 252 243 244 252 257 261 272 292 324 302 289 286 300 298 306 311 310 312 312 317 318 320 331 331 327 327 329 337 341 346 342 346 347 344 351 4 344 343 1 135 143 161 168 174 182 183 185 193
251 250 254 253 250 255 256 270 272 280 302 305 290 308 308 302 312 306 306 307 319 317 323 333 331 331 330 332 337 348 358 351 345 341 347 348 347 10 86 136 140 146 158 163 170 175 182 183 192
245 230 239 255 267 269 267 270 284 304 298 288 272 290 303 312 311 308 305 308 311 314 324 333 331 331 331 335 340 1 357 354 349 358 2 0 20 12 44 146 146 147 143 152 165 174 188 176 191
229 231 234 243 250 259 272 287 285 333 281 257 274 290 300 311 310 308 311 317 310 320 327 335 331 330 332 338 344 4 1 359 4 6 9 10 1 6 52 106 153 155 151 147 155 167 184 180 171
229 217 231 245 249 262 310 304 311 279 253 263 286 272 293 310 314 315 314 311 319 327 333 337 331 333 338 346 346 4 12 11 13 9 5 -0 17 51 68 77 163 159 158 154 155 162 173 183 183
223 227 230 235 255 288 289 257 254 288 300 312 303 289 294 308 313 310 313 316 323 333 339 335 331 340 342 352 356 7 18 17 13 12 6 11 25 46 71 72 137 166 158 161 169 170 174 177 184
222 233 244 230 227 247 276 308 242 296 309 305 326 332 300 305 306 303 307 311 329 341 344 337 333 348 349 6 8 20 21 23 13 7 19 14 21 36 40 75 107 159 160 164 172 168 170 170 171
219 237 233 231 233 230 228 245 268 263 278 287 316 319 313 306 296 317 308 320 331 359 350 345 344 13 8 26 17 17 23 31 18 7 21 26 31 47 57 91 96 124 157 161 163 149 154 163 169
223 214 235 237 235 235 251 272 251 273 278 289 303 306 324 313 304 311 311 324 349 10 360 355 1 21 16 19 15 24 33 52 35 41 36 19 63 61 74 77 90 109 130 146 150 150 162 167 174
240 227 225 240 231 220 220 238 238 254 265 280 297 291 294 305 313 312 324 335 12 18 11 1 6 15 30 33 42 45 47 52 46 50 41 40 68 82 71 82 90 107 114 126 137 138 164 174 177
Height
5888 5889 5887 5887 5889 5887 5885 5882 5886 5884 5876 5868 5872 5871 5867 5863 5863 5861 5857 5856 5852 5848 5849 5848 5843 5840 5838 5835 5832 5830 5826 5823 5821 5819 5817 5815 5811 5809 5808 5808 5808 5808 5809 5809 5811 5814 5817 5822 5824
5887 5886 5886 5884 5885 5883 5885 5884 5880 5877 5870 5866 5868 5866 5861 5855 5857 5853 5853 5851 5850 5845 5843 5843 5838 5837 5833 5829 5825 5822 5819 5816 5813 5810 5807 5806 5803 5801 5798 5798 5799 5799 5799 5800 5801 5804 5808 5813 5817
5886 5884 5883 5882 5880 5882 5882 5878 5875 5871 5865 5866 5864 5857 5856 5856 5855 5851 5849 5845 5842 5840 5837 5838 5833 5829 5827 5824 5820 5816 5812 5808 5804 5802 5799 5797 5795 5793 5790 5787 5788 5788 5788 5790 5791 5794 5799 5804 5808
5883 5883 5883 5881 5879 5884 5880 5877 5872 5868 5870 5859 5858 5857 5848 5853 5852 5849 5845 5841 5838 5834 5830 5831 5829 5825 5821 5818 5814 5810 5806 5802 5798 5793 5790 5787 5784 5781 5779 5778 5776 5776 5778 5779 5781 5784 5789 5794 5799
5880 5878 5878 5874 5877 5876 5872 5873 5867 5867 5866 5864 5851 5852 5845 5845 5847 5843 5839 5837 5833 5830 5825 5824 5821 5818 5816 5813 5808 5804 5800 5796 5790 5785 5781 5776 5772 5770 5768 5766 5765 5764 5765 5768 5772 5775 5779 5785 5790
5876 5875 5875 5873 5878 5871 5870 5864 5862 5864 5862 5859 5852 5846 5842 5840 5843 5837 5834 5832 5829 5825 5821 5818 5816 5814 5809 5806 5801 5796 5792 5787 5782 5777 5772 5768 5764 5759 5756 5754 5753 5753 5754 5757 5760 5765 5770 5776 5782
5871 5870 5870 5870 5871 5872 5870 5858 5859 5860 5857 5853 5849 5845 5840 5834 5839 5834 5829 5827 5824 5820 5817 5813 5810 5808 5804 5800 5795 5790 5784 5778 5772 5767 5763 5760 5756 5750 5746 5742 5741 5742 5744 5747 5750 5756 5762 5767 5773
5867 5865 5866 5866 5865 5868 5866 5860 5856 5855 5849 5848 5845 5843 5838 5832 5830 5827 5825 5821 5820 5817 5813 5809 5805 5800 5795 5791 5789 5783 5776 5769 5763 5759 5756 5750 5745 5740 5734 5731 5730 5731 5734 5737 5740 5746 5753 5759 5765
5861 5859 5860 5861 5862 5863 5861 5857 5853 5850 5846 5844 5837 5834 5834 5832 5829 5824 5822 5816 5811 5808 5805 5803 5800 5794 5789 5784 5779 5775 5768 5761 5756 5751 5745 5739 5734 5729 5724 5721 5720 5721 5724 5728 5732 5737 5744 5751 5757
5855 5853 5855 5855 5855 5854 5852 5851 5850 5848 5843 5838 5832 5826 5825 5828 5825 5820 5816 5813 5807 5803 5799 5797 5792 5788 5783 5777 5772 5767 5761 5755 5749 5743 5736 5730 5724 5719 5714 5712 5711 5713 5715 5719 5724 5730 5736 5743 5750
5849 5847 5847 5849 5848 5847 5847 5846 5845 5841 5839 5837 5831 5826 5818 5821 5820 5815 5811 5807 5803 5799 5794 5791 5787 5782 5776 5772 5766 5759 5754 5748 5742 5737 5729 5722 5716 5711 5708 5706 5705 5704 5707 5711 5716 5723 5729 5736 5743
5840 5842 5841 5842 5843 5842 5842 5840 5837 5835 5833 5830 5824 5826 5820 5818 5814 5812 5809 5803 5801 5797 5792 5787 5781 5776 5771 5766 5759 5753 5747 5742 5737 5730 5721 5715 5709 5705 5703 5699 5697 5695 5698 5703 5708 5716 5724 5730 5738
5835 5838 5838 5837 5837 5837 5836 5833 5831 5830 5828 5824 5821 5821 5817 5813 5810 5807 5804 5800 5795 5789 5785 5780 5775 5770 5766 5760 5753 5748 5742 5736 5731 5723 5716 5708 5703 5700 5698 5693 5691 5690 5692 5696 5702 5709 5718 5726 5734
5831 5831 5831 5831 5832 5831 5829 5827 5825 5826 5822 5818 5819 5816 5813 5809 5805 5803 5801 5796 5791 5785 5781 5776 5771 5766 5760 5754 5749 5743 5738 5732 5724 5717 5710 5703 5699 5696 5694 5690 5688 5688 5690 5693 5699 5706 5713 5722 5729
5823 5822 5824 5824 5826 5825 5824 5822 5823 5823 5816 5815 5812 5810 5809 5805 5802 5799 5796 5791 5785 5781 5777 5772 5767 5763 5757 5751 5745 5740 5735 5728 5721 5715 5708 5700 5696 5692 5690 5688 5686 5687 5688 5691 5697 5705 5713 5719 5726
5814 5816 5815 5821 5822 5821 5821 5816 5820 5818 5812 5810 5808 5807 5803 5801 5797 5793 5789 5786 5782 5778 5772 5768 5763 5758 5753 5747 5741 5737 5732 5726 5720 5713 5706 5698 5693 5690 5688 5685 5684 5685 5687 5689 5695 5702 5709 5716 5724
5807 5808 5812 5816 5818 5818 5818 5814 5812 5814 5811 5807 5804 5802 5799 5794 5791 5788 5786 5782 5779 5774 5769 5764 5760 5755 5750 5744 5738 5735 5729 5724 5718 5710 5704 5697 5692 5689 5687 5684 5683 5683 5686 5687 5692 5701 5708 5714 5723
5805 5806 5810 5812 5815 5817 5813 5810 5809 5808 5806 5803 5802 5798 5794 5790 5786 5786 5782 5778 5775 5770 5766 5761 5758 5753 5747 5742 5737 5732 5727 5721 5716 5710 5703 5698 5692 5688 5686 5684 5683 5682 5685 5687 5692 5700 5707 5714 5723
5802 5803 5807 5812 5815 5809 5809 5807 5808 5806 5801 5800 5798 5795 5791 5785 5782 5781 5778 5774 5771 5766 5763 5759 5755 5750 5745 5740 5735 5730 5724 5719 5715 5709 5703 5698 5693 5689 5686 5685 5685 5684 5685 5689 5693 5700 5707 5715 5722
5796 5798 5801 5807 5810 5810 5808 5806 5803 5801 5796 5794 5791 5789 5787 5781 5778 5777 5774 5770 5767 5764 5760 5757 5752 5748 5743 5739 5734 5728 5723 5718 5712 5708 5702 5698 5692 5689 5687 5685 5685 5686 5687 5691 5696 5701 5708 5716 5725
5789 5792 5795 5801 5804 5803 5801 5798 5797 5795 5794 5792 5790 5785 5781 5777 5775 5773 5771 5767 5765 5761 5758 5754 5750 5746 5741 5737 5732 5728 5722 5716 5711 5706 5702 5697 5693 5690 5688 5687 5687 5688 5690 5693 5697 5703 5710 5717 5725
5782 5788 5792 5796 5797 5796 5798 5791 5793 5792 5789 5788 5784 5780 5778 5775 5773 5769 5767 5764 5762 5758 5755 5752 5748 5744 5740 5736 5732 5727 5722 5717 5712 5706 5702 5698 5694 5690 5689 5688 5689 5690 5692 5695 5700 5704 5710 5717 5724
5779 5786 5791 5793 5790 5790 5788 5788 5788 5788 5787 5787 5779 5776 5772 5771 5768 5766 5764 5761 5758 5756 5753 5750 5746 5743 5739 5736 5732 5727 5722 5717 5711 5706 5703 5699 5694 5692 5690 5690 5691 5693 5695 5698 5703 5705 5709 5717 5725
5777 5782 5786 5786 5786 5782 5785 5785 5785 5785 5785 5782 5777 5773 5769 5768 5766 5763 5761 5758 5755 5753 5751 5748 5745 5742 5738 5735 5733 5727 5722 5717 5712 5708 5705 5701 5697 5694 5692 5691 5692 5695 5698 5701 5705 5708 5709 5718 5726
5770 5777 5778 5779 5778 5779 5783 5780 5779 5782 5781 5777 5775 5771 5765 5765 5763 5761 5758 5756 5753 5751 5749 5746 5743 5741 5737 5735 5733 5727 5723 5719 5715 5711 5707 5703 5699 5696 5693 5692 5694 5697 5701 5705 5710 5715 5719 5722 5728
5765 5767 5770 5773 5774 5777 5780 5775 5780 5776 5777 5774 5771 5766 5764 5762 5760 5758 5756 5754 5752 5749 5747 5746 5743 5740 5736 5734 5733 5729 5724 5721 5717 5713 5709 5706 5703 5700 5698 5696 5695 5699 5705 5710 5713 5718 5723 5728 5733
5760 5758 5768 5769 5773 5775 5776 5776 5775 5771 5772 5769 5765 5763 5762 5760 5758 5757 5754 5753 5751 5748 5746 5745 5742 5739 5735 5735 5733 5730 5726 5723 5719 5715 5711 5709 5707 5705 5701 5700 5700 5704 5708 5712 5715 5719 5724 5730 5736
5751 5759 5760 5761 5765 5768 5772 5775 5778 5769 5768 5764 5763 5763 5761 5758 5756 5755 5752 5752 5750 5747 5746 5744 5741 5739 5736 5735 5734 5730 5728 5725 5721 5718 5715 5712 5711 5708 5706 5705 5705 5708 5712 5716 5720 5725 5729 5734 5739
5743 5748 5752 5758 5761 5764 5768 5771 5770 5765 5765 5762 5762 5760 5759 5756 5754 5753 5752 5751 5749 5747 5746 5744 5742 5739 5737 5737 5735 5732 5730 5728 5724 5722 5718 5714 5714 5713 5712 5711 5711 5712 5716 5721 5725 5729 5733 5737 5741
5739 5744 5748 5751 5757 5759 5766 5767 5761 5761 5763 5762 5759 5757 5757 5755 5753 5751 5751 5750 5749 5748 5746 5745 5744 5741 5739 5738 5736 5734 5732 5730 5727 5726 5722 5719 5718 5718 5718 5719 5718 5719 5721 5724 5728 5732 5736 5739 5743